Date String (YYYY-MM-DD hh:mm:ss) UTC,Instrument flags,Ambient pressure (hPa),Sample flow (lpm),Bypass flow (lpm),Sample temperature (°C),Ambient temperature (°C),ASC tube jacket temperature (°C),LED temperature (°C),Box temperature (°C),Sample RH (%),Span deviation,Mass concentration (μg/m³),Mass concentration (μg/m³),Mass concentration (μg/m³)
DateTimeUTC,F1_M11,P_M11,Q1_M11,Q2_M11,T1_M11,T2_M11,T3_M11,T4_M11,T5_M11,U1_M11,ZSPAN_M11,X0_M11,X2_M11,X1_M11
2022-05-13 14:00:00,,0826.6,5.00,0.00,26.8,26.1,00.0,35.8,28.6,08.0,0000.0,0005.87,0002.75,0001.67
2022-05-13 14:01:00,,0826.5,5.00,0.00,26.8,26.1,00.0,35.8,28.6,07.6,0000.0,0005.89,0002.75,0001.68
2022-05-13 14:02:00,,0826.6,5.00,0.00,26.8,26.1,00.0,35.8,28.6,07.5,0000.0,0006.03,0002.79,0001.69
2022-05-13 14:03:00,,0826.6,4.99,0.00,26.8,26.1,00.0,35.8,28.6,07.6,0000.0,0005.75,0002.69,0001.68
2022-05-13 14:04:00,,0826.6,5.02,0.00,26.9,26.1,00.0,35.8,28.6,07.5,0000.0,0005.94,0002.74,0001.70
2022-05-13 14:05:00,,0826.6,4.99,0.00,26.9,26.0,00.0,35.8,28.6,07.4,0000.0,0006.22,0002.80,0001.72
2022-05-13 14:06:00,,0826.6,4.99,0.00,26.9,26.0,00.0,35.8,28.6,07.6,0000.0,0006.01,0002.80,0001.74
2022-05-13 14:07:00,,0826.6,5.02,0.00,26.9,26.1,00.0,35.8,28.7,07.7,0000.0,0006.04,0002.83,0001.76
2022-05-13 14:08:00,,0826.6,4.99,0.00,26.9,26.1,00.0,35.8,28.7,08.2,0000.0,0006.37,0002.85,0001.77
2022-05-13 14:09:00,,0826.6,5.00,0.00,26.9,26.1,00.0,35.8,28.7,07.7,0000.0,0006.16,0002.81,0001.79
2022-05-13 14:10:00,,0826.6,5.01,0.00,26.9,26.1,00.0,35.8,28.7,07.7,0000.0,0006.15,0002.80,0001.81
2022-05-13 14:11:00,,0826.6,4.99,0.00,26.9,26.1,00.0,35.8,28.8,07.4,0000.0,0005.87,0002.74,0001.82
2022-05-13 14:12:00,,0826.6,5.00,0.00,26.9,26.1,00.0,35.8,28.7,07.7,0000.0,0005.68,0002.73,0001.81
2022-05-13 14:13:00,,0826.6,5.01,0.00,26.9,26.1,00.0,35.8,28.7,08.8,0000.0,0005.91,0002.72,0001.79
2022-05-13 14:14:00,,0826.7,5.00,0.00,26.9,26.1,00.0,35.8,28.7,08.5,0000.0,0006.74,0002.72,0001.79
2022-05-13 14:15:00,,0826.6,4.99,0.00,26.9,26.2,00.0,35.9,28.8,08.5,0000.0,0006.71,0002.71,0001.78
2022-05-13 14:16:00,,0826.6,5.00,0.00,26.9,26.2,00.0,35.9,28.8,08.4,0000.0,0006.38,0002.71,0001.76
2022-05-13 14:17:00,,0826.6,5.00,0.00,27.0,26.2,00.0,35.9,28.8,08.7,0000.0,0006.35,0002.67,0001.73
2022-05-13 14:18:00,,0826.6,5.01,0.00,27.0,26.2,00.0,35.9,28.9,08.2,0000.0,0006.85,0002.62,0001.70
2022-05-13 14:19:00,,0826.7,4.99,0.00,27.0,26.3,00.0,35.9,28.9,08.3,0000.0,0006.51,0002.54,0001.66
2022-05-13 14:20:00,,0826.7,4.99,0.00,27.1,26.3,00.0,35.9,28.9,08.1,0000.0,0006.95,0002.60,0001.64
2022-05-13 14:21:00,,0826.6,5.01,0.00,27.1,26.3,00.0,35.9,28.9,08.2,0000.0,0007.18,0002.66,0001.62
2022-05-13 14:22:00,,0826.6,5.00,0.00,27.1,26.4,00.0,35.9,29.0,08.3,0000.0,0007.30,0002.67,0001.60
2022-05-13 14:23:00,,0826.6,5.00,0.00,27.1,26.4,00.0,35.9,29.0,08.1,0000.0,0007.23,0002.63,0001.60
2022-05-13 14:24:00,,0826.6,5.00,0.00,27.1,26.4,00.0,35.9,29.0,07.6,0000.0,0006.81,0002.62,0001.62
2022-05-13 14:25:00,,0826.6,5.00,0.00,27.1,26.4,00.0,36.0,29.0,07.5,0000.0,0005.97,0002.60,0001.64
2022-05-13 14:26:00,,0826.6,5.01,0.00,27.2,26.4,00.0,36.0,29.0,07.7,0000.0,0005.92,0002.64,0001.66
2022-05-13 14:27:00,,0826.6,4.99,0.00,27.2,26.4,00.0,36.0,29.0,07.9,0000.0,0005.92,0002.66,0001.68
2022-05-13 14:28:00,,0826.6,5.00,0.00,27.2,26.4,00.0,36.0,29.0,07.8,0000.0,0005.99,0002.70,0001.70
2022-05-13 14:29:00,,0826.5,5.01,0.00,27.2,26.4,00.0,36.0,29.0,07.7,0000.0,0006.18,0002.78,0001.73
2022-05-13 14:30:00,,0826.5,4.99,0.00,27.2,26.4,00.0,36.0,29.0,07.7,0000.0,0006.26,0002.87,0001.77
2022-05-13 14:31:00,,0826.5,5.01,0.00,27.2,26.4,00.0,36.0,29.0,07.4,0000.0,0006.18,0002.89,0001.79
2022-05-13 14:32:00,,0826.5,4.99,0.00,27.2,26.4,00.0,36.1,28.9,07.6,0000.0,0007.46,0002.93,0001.83
2022-05-13 14:33:00,,0826.5,5.00,0.00,27.2,26.3,00.0,36.1,28.9,07.8,0000.0,0007.51,0003.02,0001.86
2022-05-13 14:34:00,,0826.4,4.99,0.00,27.2,26.3,00.0,36.1,28.9,07.8,0000.0,0007.69,0003.10,0001.88
2022-05-13 14:35:00,,0826.3,5.00,0.00,27.2,26.3,00.0,36.1,29.0,07.6,0000.0,0007.79,0003.14,0001.90
2022-05-13 14:36:00,,0826.5,4.99,0.00,27.2,26.3,00.0,36.1,29.0,07.6,0000.0,0007.79,0003.15,0001.90
2022-05-13 14:37:00,,0826.5,5.00,0.00,27.2,26.3,00.0,36.1,28.9,07.8,0000.0,0007.80,0003.15,0001.89
2022-05-13 14:38:00,,0826.5,5.01,0.00,27.2,26.3,00.0,36.1,29.0,07.7,0000.0,0008.05,0003.17,0001.89
2022-05-13 14:39:00,,0826.5,4.99,0.00,27.2,26.3,00.0,36.1,28.9,07.9,0000.0,0008.67,0003.19,0001.91
2022-05-13 14:40:00,,0826.5,5.01,0.00,27.2,26.3,00.0,36.1,28.9,07.9,0000.0,0008.30,0003.19,0001.92
2022-05-13 14:41:00,,0826.6,4.99,0.00,27.2,26.2,00.0,36.1,28.9,07.8,0000.0,0008.16,0003.18,0001.92
2022-05-13 14:42:00,,0826.7,4.99,0.00,27.3,26.2,00.0,36.1,29.0,08.3,0000.0,0007.90,0003.15,0001.93
2022-05-13 14:43:00,,0826.7,5.01,0.00,27.3,26.2,00.0,36.1,29.0,08.2,0000.0,0007.13,0003.13,0001.91
2022-05-13 14:44:00,,0826.7,4.99,0.00,27.3,26.3,00.0,36.1,29.0,08.2,0000.0,0007.41,0003.15,0001.91
2022-05-13 14:45:00,,0826.6,5.01,0.00,27.3,26.3,00.0,36.2,29.0,07.7,0000.0,0007.36,0003.15,0001.92
2022-05-13 14:46:00,,0826.5,5.00,0.00,27.3,26.3,00.0,36.2,29.0,07.7,0000.0,0007.36,0003.14,0001.91
2022-05-13 14:47:00,,0826.6,4.99,0.00,27.3,26.3,00.0,36.2,29.0,07.8,0000.0,0007.38,0003.16,0001.94
2022-05-13 14:48:00,,0826.6,5.00,0.00,27.3,26.3,00.0,36.2,29.0,07.7,0000.0,0007.22,0003.14,0001.96
2022-05-13 14:49:00,,0826.6,5.00,0.00,27.3,26.3,00.0,36.2,29.0,07.9,0000.0,0006.68,0003.09,0001.97
2022-05-13 14:50:00,,0826.7,5.00,0.00,27.3,26.3,00.0,36.2,29.1,07.5,0000.0,0005.63,0003.10,0001.98
2022-05-13 14:51:00,,0826.7,5.01,0.00,27.3,26.3,00.0,36.2,29.0,07.5,0000.0,0005.77,0003.15,0002.00
2022-05-13 14:52:00,,0826.7,4.99,0.00,27.3,26.3,00.0,36.2,29.1,07.9,0000.0,0005.91,0003.17,0002.02
2022-05-13 14:53:00,,0826.7,4.99,0.00,27.3,26.3,00.0,36.2,29.1,07.4,0000.0,0006.36,0003.16,0002.03
2022-05-13 14:54:00,,0826.7,5.00,0.00,27.3,26.3,00.0,36.2,29.1,07.5,0000.0,0006.68,0003.17,0002.04
2022-05-13 14:55:00,,0826.6,5.00,0.00,27.3,26.3,00.0,36.2,29.1,07.8,0000.0,0006.21,0003.12,0002.04
2022-05-13 14:56:00,,0826.6,4.99,0.00,27.3,26.3,00.0,36.2,29.1,07.6,0000.0,0005.90,0003.07,0002.04
2022-05-13 14:57:00,,0826.6,5.00,0.00,27.4,26.3,00.0,36.2,29.1,07.5,0000.0,0006.01,0003.11,0002.05
2022-05-13 14:58:00,,0826.7,5.01,0.00,27.3,26.3,00.0,36.3,29.1,07.3,0000.0,0006.11,0003.13,0002.05
2022-05-13 14:59:00,,0826.7,5.01,0.00,27.4,26.2,00.0,36.3,29.1,07.6,0000.0,0006.80,0003.14,0002.04
